HST 1 20580U 90037B 26071.22647860 .00008646 00000+0 28559-3 0 9990 2 20580 28.4723 22.6938 0001818 150.2149 209.8550 15.29528665773705 POLAR 1 23802U 96013A 26070.98890696 .00000228 00000+0 00000+0 0 9994 2 23802 79.7539 228.1647 6371822 212.3813 84.1776 1.29845758143590 SWAS 1 25560U 98071A 26071.25284913 .00003974 00000+0 25784-3 0 9994 2 25560 69.8952 117.3643 0004263 9.0208 351.1031 15.08912024482648 CXO 1 25867U 99040B 26071.53156319 .00001015 00000+0 00000+0 0 9994 2 25867 54.5614 119.5985 7991211 310.6812 0.3445 0.37798688 16957 XMM-NEWTON 1 25989U 99066A 26071.61381456 .00000166 00000+0 00000+0 0 9994 2 25989 64.9722 284.2424 4709197 66.6014 0.0156 0.50131169 22520 TERRA 1 25994U 99068A 26071.24266375 .00000545 00000+0 12010-3 0 9992 2 25994 97.9589 124.5798 0002853 145.6884 240.8775 14.61017918395455 CLUSTER II-FM7 (SAMBA) 1 26410U 00041A 26072.18498853 .00009157 00000+0 00000+0 0 9991 2 26410 149.0994 35.5717 8921020 251.7870 0.4837 0.44824009 19879 CLUSTER II-FM8 (TANGO) 1 26464U 00045B 26049.06287974 .00004776 00000+0 00000+0 0 9997 2 26464 149.0711 33.5376 8890045 249.4570 359.4916 0.44405995 19769 ODIN 1 26702U 01007A 26071.03793940 .00046999 00000+0 60483-3 0 9996 2 26702 97.4077 107.1799 0004892 136.6759 223.4883 15.58915355374200 TIMED 1 26998U 01055B 26071.25573090 .00001850 00000+0 17257-3 0 9990 2 26998 74.0662 70.1545 0003022 272.1869 87.8969 14.95032043316339 CORIOLIS 1 27640U 03001A 26071.30691209 .00000172 00000+0 10148-3 0 9995 2 27640 98.7161 79.6604 0014862 129.3645 230.8851 14.19913872200471 SORCE 1 27651U 03004A 26070.75882754 .00003645 00000+0 27569-3 0 9998 2 27651 39.9902 97.3056 0015715 71.1777 289.0720 15.03114163257236 MOST 1 27843U 03031D 26070.99269795 .00000109 00000+0 70053-4 0 9990 2 27843 98.7083 80.0626 0010065 167.0849 193.0588 14.21299964176904 SCISAT 1 1 27858U 03036A 26071.24935069 .00001182 00000+0 15598-3 0 9998 2 27858 73.9327 3.9292 0005809 91.6386 268.5456 14.81319123217091 SWIFT 1 28485U 04047A 26070.59241774 .00049197 00000+0 58208-3 0 9991 2 28485 20.5523 212.7193 0003903 55.3057 304.7755 15.59464027171565 HINODE (SOLAR-B) 1 29479U 06041A 26071.02456560 .00000740 00000+0 13596-3 0 9993 2 29479 98.0622 88.5880 0016411 233.7460 126.2229 14.68477741 40619 SHIJIAN-6 02A (SJ-6 02A) 1 29505U 06046A 26071.28606240 .00008166 00000+0 43156-3 0 9993 2 29505 97.6501 111.6475 0004879 107.7028 252.4737 15.15746640 57583 SHIJIAN-6 02B (SJ-6 02B) 1 29506U 06046B 26071.23121876 .00002809 00000+0 22435-3 0 9991 2 29506 97.7071 100.9454 0013931 35.4566 324.7581 15.01014101 56199 FGRST (GLAST) 1 33053U 08029A 26070.91016937 .00004193 00000+0 15768-3 0 9990 2 33053 25.5808 159.6383 0007735 257.2923 102.6750 15.23352016980984 SDO 1 36395U 10005A 26071.05245726 -.00000065 00000+0 00000+0 0 9999 2 36395 34.4459 87.8123 0000088 82.0542 276.8584 1.00275464 59084 CRYOSAT 2 1 36508U 10013A 26071.24883598 .00000338 00000+0 83132-4 0 9994 2 36508 92.0230 253.8097 0002095 90.5031 269.6416 14.51910493844016 X-SAT 1 37389U 11015C 26071.27075065 .00000583 00000+0 26573-3 0 9997 2 37389 98.3437 52.9570 0012813 268.5199 91.4513 14.25175399773870 GCOM-W1 (SHIZUKU) 1 38337U 12025A 26071.29676470 .00000809 00000+0 18967-3 0 9991 2 38337 98.2054 13.3184 0001435 73.4423 88.0092 14.57103223734920 NUSTAR 1 38358U 12031A 26071.33335648 .00022709 00000+0 13834-2 0 9995 2 38358 6.0277 40.0828 0007153 115.1892 26.2120 15.07757819 1303 NEOSSAT 1 39089U 13009D 26071.20472796 .00000259 00000+0 10410-3 0 9999 2 39089 98.4144 253.5502 0011207 169.9204 190.2209 14.35787233682827 BRITE-AUSTRIA 1 39091U 13009F 26071.04246863 .00000263 00000+0 10409-3 0 9991 2 39091 98.3959 252.8911 0010512 164.2421 195.9095 14.36497696683105 IRIS 1 39197U 13033A 26071.11933271 .00001544 00000+0 18379-3 0 9996 2 39197 97.9398 270.6700 0023247 277.0136 82.8435 14.85653941685962 HISAKI (SPRINT-A) 1 39253U 13049A 26071.05901743 .00000119 00000+0 73180-4 0 9997 2 39253 29.7223 353.8127 0136626 309.2939 49.5586 13.55530890618233 CASSIOPE 1 39265U 13055A 26071.18886680 .00040739 -49074-6 48782-3 0 9996 2 39265 80.9186 183.9380 0314690 27.9438 333.8291 15.18969846652916 STSAT-3 1 39422U 13066G 26071.27718346 .00005936 00000+0 45552-3 0 9996 2 39422 97.6066 42.8498 0011179 5.3181 354.8161 15.02112319669653 SWARM B 1 39451U 13067A 26071.28897196 .00005331 00000+0 19469-3 0 9998 2 39451 87.7488 11.7021 0003682 85.0850 275.0819 15.27889072668442 SWARM A 1 39452U 13067B 26071.24273265 .00011510 00000+0 21343-3 0 9990 2 39452 87.3290 92.2118 0003119 94.3674 265.7942 15.48814889691236 SWARM C 1 39453U 13067C 26071.24262431 .00011706 00000+0 21708-3 0 9996 2 39453 87.3288 90.7932 0003129 94.7511 265.4107 15.48815518691191 BRITE-CA1 (TORONTO) 1 40020U 14033L 26071.27927017 .00001748 00000+0 27079-3 0 9995 2 40020 97.9571 202.0936 0077992 226.5128 132.9578 14.72473185627954 OCO 2 1 40059U 14035A 26071.26253284 .00000677 00000+0 16029-3 0 9999 2 40059 98.2096 14.0719 0001279 94.7534 265.3810 14.57098540621936 BRITE-PL2 (HEWELIUSZ) 1 40119U 14049B 26071.28481855 .00002307 00000+0 22040-3 0 9992 2 40119 97.8979 182.6300 0015267 73.1369 287.1524 14.94198864626979 MMS 1 1 40482U 15011A 26071.33335648 -.00002041 00000+0 00000+0 0 9993 2 40482 70.8061 350.1356 8407093 165.3247 139.4570 0.28353871 1359 MMS 2 1 40483U 15011B 26071.33335648 -.00002041 00000+0 00000+0 0 9994 2 40483 70.8064 350.1377 8407827 165.3308 139.4408 0.28353880 1359 MMS 3 1 40484U 15011C 26071.33335648 -.00002041 00000+0 00000+0 0 9995 2 40484 70.8088 350.1424 8407106 165.3249 139.4485 0.28353843 1357 MMS 4 1 40485U 15011D 26071.33335648 -.00002040 00000+0 00000+0 0 9995 2 40485 70.8068 350.1375 8406612 165.3323 139.4345 0.28353835 1351 ASTROSAT 1 40930U 15052A 26070.06787116 .00002332 00000+0 20297-3 0 9992 2 40930 5.9962 141.5185 0007465 71.8455 288.2486 14.82303343565247 DAMPE 1 41173U 15078A 26071.28483145 .00002048 00000+0 71914-4 0 9997 2 41173 97.4589 76.2859 0013745 63.2314 297.0331 15.30510565569721 PISAT 1 41784U 16059B 26071.27774526 .00001387 00000+0 24421-3 0 9995 2 41784 97.8192 75.9074 0029746 152.6211 207.6571 14.68781425505510 HXMT (HUIYAN) 1 42758U 17034A 26071.27885994 .00007594 00000+0 37814-3 0 9999 2 42758 43.0160 2.2782 0033170 251.7462 107.9775 15.17507493482938 FLYING LAPTOP 1 42831U 17042G 26071.31207475 .00003219 00000+0 25873-3 0 9999 2 42831 97.4280 230.8685 0019479 87.1731 273.1723 15.00537494471925 ZHANGHENG 1-01 (CSES-1) 1 43194U 18015C 26071.28663946 .00010601 00000+0 47835-3 0 9993 2 43194 97.6758 235.0681 0015012 235.0611 124.9215 15.21091803449918 SALSAT 1 46495U 20068K 26071.22667846 .00009790 00000+0 35833-3 0 9990 2 46495 97.8863 68.5046 0008115 285.6755 74.3587 15.28242349300549 IXPE 1 49954U 21121A 26071.33335648 .00014499 00000+0 82660-3 0 9990 2 49954 0.2321 329.5656 0006805 52.4194 138.4767 15.09257941 4688